Date,TemperatureHighF,TemperatureAvgF,TemperatureLowF,DewpointHighF,DewpointAvgF,DewpointLowF,HumidityHigh,HumidityAvg,HumidityLow,PressureMaxIn,PressureMinIn,WindSpeedMaxMPH,WindSpeedAvgMPH,GustSpeedMaxMPH,PrecipitationSumIn
2013-1-1,25.7,25.2,24.9,22.2,21.9,21.5,88,87,84,30.70,30.68,1,0,4,0.00
2013-1-2,28.4,25.2,17.3,23.4,21.4,15.4,92,85,78,30.68,30.58,2,0,6,0.00
2013-1-3,26.9,20.5,14.6,20.7,17.1,12.7,93,87,77,30.55,30.44,3,0,6,0.00
2013-1-4,28.5,26.2,16.2,23.8,21.9,14.8,94,84,80,30.52,30.48,2,0,6,0.00
2013-1-5,35.8,33.3,31.0,29.8,28.8,27.2,91,83,78,30.41,30.29,2,1,7,0.00
2013-1-6,31.3,30.3,29.4,28.8,28.1,27.3,94,91,89,30.23,30.18,3,1,7,0.00
2013-1-7,38.3,35.2,32.9,36.9,34.4,32.1,98,97,94,29.99,29.89,4,1,15,0.00
2013-1-8,36.3,34.9,34.1,34.0,33.4,32.7,98,94,88,30.18,29.98,1,0,4,0.01
2013-1-9,44.8,40.5,34.4,38.2,35.2,31.2,89,81,70,29.79,29.63,5,2,16,0.00
2013-1-12,22.6,19.8,14.1,18.5,16.7,12.2,92,88,83,30.44,30.38,3,1,8,0.00
2013-1-13,23.3,20.8,17.0,18.2,16.9,14.8,91,85,81,30.55,30.53,2,1,5,0.00
2013-1-14,26.0,24.8,23.8,23.4,22.5,21.7,93,91,87,30.53,30.42,2,0,6,0.00
2013-1-15,29.7,28.2,24.9,26.3,25.2,21.6,93,88,84,30.70,30.66,2,0,6,0.00
2013-1-16,30.5,26.2,22.3,27.3,24.5,20.8,97,93,89,30.67,30.63,1,0,3,0.01
2013-1-17,23.5,22.5,20.7,22.5,21.4,19.7,96,96,95,30.68,30.54,2,0,4,0.00
2013-1-18,26.1,21.6,16.8,24.2,20.0,15.4,95,93,91,30.44,30.37,3,0,5,0.00
2013-1-19,25.3,24.9,24.7,23.3,22.8,22.5,93,92,90,30.54,30.52,0,0,1,0.00
2013-1-20,31.1,28.9,24.1,25.8,24.4,21.5,90,83,80,30.57,30.54,1,0,4,0.00
2013-1-21,24.6,20.5,17.8,22.2,18.8,16.1,95,93,90,30.45,30.41,2,0,4,0.00
2013-1-22,23.8,20.2,13.9,22.3,18.8,12.5,95,94,93,30.44,30.31,2,0,4,0.00
2013-1-23,31.6,30.2,28.6,30.5,27.9,25.5,97,91,84,30.12,30.02,2,1,5,0.00
2013-1-24,31.9,29.2,25.8,29.6,27.4,24.1,95,93,91,30.36,30.26,3,1,9,0.00
2013-1-25,36.5,35.1,32.8,35.5,34.5,32.3,98,97,96,30.17,30.01,0,0,2,0.01
2013-1-26,36.9,34.9,33.3,34.0,32.8,31.6,98,92,85,29.99,29.94,2,1,6,0.00
2013-1-27,32.7,31.9,30.8,29.7,29.3,28.9,93,90,88,30.03,30.02,2,1,6,0.00
2013-1-28,33.2,30.8,29.5,31.0,29.0,27.6,95,93,91,29.98,29.94,4,1,10,0.00
2013-1-29,38.1,34.4,29.6,32.9,31.0,28.3,95,87,79,30.25,30.16,2,0,6,0.00
2013-1-30,43.6,37.6,33.5,38.1,35.5,33.0,98,92,80,30.26,30.21,2,1,9,0.00
2013-1-31,42.7,38.2,34.3,39.7,36.8,33.6,98,95,88,30.28,30.22,1,0,4,0.00
2013-2-1,42.3,35.4,29.3,36.3,33.0,28.1,99,91,79,30.50,30.39,3,0,7,0.00
2013-2-2,35.3,32.8,28.8,35.0,32.5,28.6,99,99,98,30.57,30.37,2,0,5,0.00
2013-2-3,35.6,34.3,31.7,34.8,33.7,31.5,99,98,96,30.30,30.22,1,0,3,0.00
2013-2-4,40.7,38.6,34.5,37.0,35.6,33.0,94,89,86,30.13,30.08,2,0,5,0.00
2013-2-5,43.1,38.7,30.4,38.0,35.8,30.2,99,90,80,29.97,29.88,3,1,9,0.00
2013-2-6,44.6,39.4,32.8,35.9,33.9,31.1,94,81,69,30.10,30.04,3,1,9,0.00
2013-2-7,43.4,39.2,35.7,38.5,35.5,34.1,95,87,73,30.05,29.97,3,0,7,0.00
2013-2-8,41.5,36.1,31.6,35.3,33.2,30.1,97,89,74,30.17,30.12,2,0,5,0.00
2013-2-9,36.2,31.7,26.4,31.3,29.1,25.2,96,90,81,30.23,30.11,3,0,6,0.00
2013-2-10,35.0,32.4,26.6,30.9,29.5,26.1,98,89,82,30.37,30.32,2,0,5,0.00
2013-2-11,40.7,36.5,30.6,32.7,31.5,28.8,93,82,72,30.29,30.25,2,0,5,0.00
2013-2-12,44.0,39.5,33.3,38.0,34.9,31.5,93,84,74,30.35,30.19,4,1,12,0.00
2013-2-13,48.1,43.4,35.7,36.0,33.1,29.5,91,67,55,30.27,30.23,3,2,10,0.00
2013-2-14,44.3,35.9,25.2,33.6,29.8,24.0,95,79,62,30.57,30.50,3,1,7,0.00
2013-2-15,50.2,39.5,25.5,38.0,32.7,24.5,96,78,61,30.61,30.34,2,1,5,0.00
2013-2-16,45.1,42.0,34.4,39.7,36.6,31.5,90,81,75,30.18,29.98,3,1,8,0.00
2013-2-18,43.6,39.2,29.4,30.4,28.2,25.4,85,65,53,30.07,29.85,3,1,8,0.00
2013-2-19,37.0,35.1,32.8,35.0,33.4,31.8,97,94,91,29.88,29.77,3,0,7,0.00
2013-2-20,39.6,34.1,27.0,33.5,29.5,24.4,94,84,66,30.04,30.00,3,1,9,0.00
2013-2-21,37.9,34.8,32.3,35.3,32.9,30.9,97,93,87,30.08,30.03,3,1,7,0.00
2013-2-22,39.6,35.8,33.7,37.5,34.6,32.7,98,95,91,29.90,29.70,5,3,13,0.14
2013-2-23,45.4,39.0,30.7,30.9,28.1,24.0,83,66,43,30.17,29.94,5,2,12,0.00
2013-2-24,40.8,37.0,28.5,30.7,29.2,26.4,92,74,64,30.38,30.27,4,2,10,0.00
2013-2-25,44.2,39.4,33.3,35.6,33.3,28.4,97,80,60,30.00,29.94,5,3,19,0.17
2013-2-26,42.8,37.9,32.4,29.9,28.0,26.0,82,68,53,30.37,30.30,4,1,10,0.00
2013-2-27,47.2,41.7,31.5,31.8,29.4,26.9,90,62,49,30.32,30.29,4,2,11,0.00
2013-2-28,42.3,39.2,34.1,39.3,37.3,32.7,97,93,86,30.39,30.35,2,0,7,0.16
2013-3-1,52.9,50.4,46.3,46.9,45.4,44.0,93,83,79,30.37,30.31,5,2,14,0.00
2013-3-2,55.2,50.7,41.4,44.4,42.8,38.7,92,75,65,30.21,29.91,4,2,13,0.00
2013-3-3,46.5,44.5,42.2,24.0,21.4,18.8,47,40,36,30.11,30.01,6,3,18,0.00
2013-3-4,47.0,41.5,29.8,25.5,21.5,19.4,70,46,34,30.34,30.17,3,1,9,0.00
2013-3-5,42.0,38.0,29.2,31.5,26.2,22.7,82,63,47,30.09,29.92,4,2,10,0.00
2013-3-6,48.7,42.2,38.0,39.4,37.3,33.0,94,83,69,29.78,29.62,4,2,13,0.12
2013-3-7,45.3,41.4,36.9,39.0,37.1,35.4,95,85,70,30.09,30.06,3,2,8,0.17
2013-3-8,41.3,36.9,33.0,36.9,34.8,31.7,99,92,84,30.13,30.11,2,1,6,0.01
2013-3-9,52.5,42.8,35.9,32.4,31.4,29.3,84,66,41,30.45,30.39,2,0,10,0.01
2013-3-10,46.0,40.5,32.0,37.1,33.6,29.6,95,77,58,30.44,30.30,4,2,10,0.00
2013-3-11,51.2,46.2,39.3,31.1,27.0,23.0,67,48,34,30.35,30.26,4,1,9,0.01
2013-3-12,54.9,47.2,36.3,46.1,41.7,34.7,96,82,66,30.15,30.06,5,2,16,0.07
2013-3-13,57.3,54.0,46.2,45.2,43.4,40.7,81,67,60,30.18,30.13,4,1,9,0.01
2013-3-14,62.6,56.4,47.0,47.9,44.8,41.5,86,66,47,30.06,29.96,5,2,12,0.00
2013-3-15,60.2,51.9,41.6,44.0,41.0,36.8,91,68,44,30.15,30.05,5,2,15,0.01
2013-3-16,52.3,46.6,41.1,40.7,37.8,33.5,87,72,53,29.96,29.69,6,3,16,0.01
2013-3-17,41.7,41.6,41.6,23.9,23.8,23.8,49,49,49,30.00,30.00,1,1,4,0.00
2013-3-18,48.8,39.7,30.8,34.6,28.0,17.6,86,64,29,30.20,30.00,6,2,25,0.01
2013-3-19,49.0,43.5,28.4,30.6,25.5,19.2,89,52,31,30.34,30.02,5,2,13,0.00
2013-3-20,53.9,47.6,42.6,48.2,41.2,30.1,93,79,58,29.70,29.49,6,3,16,0.35
2013-3-21,45.4,39.1,33.0,27.6,24.0,18.1,78,55,36,30.05,29.99,6,3,18,0.01
2013-3-22,43.9,38.7,28.8,28.7,23.1,17.3,88,56,36,30.23,30.17,5,2,12,0.00
2013-3-23,42.4,36.8,28.7,29.1,25.2,21.6,83,64,45,30.41,30.34,5,1,12,0.00
2013-3-24,47.4,43.9,35.3,21.9,16.3,11.4,48,33,26,30.37,30.25,3,2,8,0.00
2013-3-25,52.6,43.5,29.5,30.0,26.4,21.4,78,52,36,30.24,30.05,3,1,9,0.00
2013-3-26,56.7,45.8,31.9,33.4,29.7,25.7,78,54,39,30.07,29.97,3,1,8,0.00
2013-3-27,57.8,53.2,41.6,40.3,37.7,31.1,69,56,50,30.03,29.97,3,1,8,0.00
2013-3-29,63.1,53.2,40.8,44.6,36.9,31.7,91,57,32,30.22,30.14,5,2,14,0.00
2013-3-30,66.0,53.1,39.1,44.1,38.8,33.4,84,61,36,30.31,30.22,3,1,7,0.00
2013-3-31,69.7,61.1,44.7,40.6,37.2,32.7,77,43,26,30.11,29.92,3,1,8,0.00
2013-4-1,72.0,60.7,47.6,42.7,39.2,34.5,71,47,26,29.98,29.90,3,1,7,0.00
2013-4-2,60.1,52.9,47.6,45.4,42.8,39.5,79,69,54,30.06,29.96,3,1,10,0.00
2013-4-3,64.3,58.0,46.9,44.1,40.2,36.3,75,53,38,30.06,29.99,4,1,9,0.00
2013-4-4,52.9,52.0,50.4,50.9,49.9,48.7,94,92,89,29.76,29.72,3,1,9,0.13
2013-4-5,56.6,51.5,49.0,46.3,44.6,43.7,83,77,67,29.83,29.82,6,5,21,0.01
2013-4-6,57.4,52.2,47.3,43.5,39.1,32.4,82,62,41,29.85,29.80,7,4,25,0.09
2013-4-7,52.7,46.1,40.3,44.6,39.3,34.2,95,79,55,29.72,29.54,6,2,20,0.43
2013-4-8,49.1,44.6,39.0,37.4,34.6,30.6,85,69,52,30.18,29.99,4,1,8,0.00
2013-4-9,52.9,45.8,38.7,34.6,31.7,30.4,75,58,47,30.38,30.33,3,1,9,0.00
2013-4-10,62.0,54.6,50.1,49.6,43.7,39.0,90,68,45,29.97,29.77,8,4,26,0.06
2013-4-11,55.9,51.4,45.8,36.4,32.1,28.0,68,48,36,30.12,30.05,6,3,15,0.00
2013-4-12,55.4,48.2,37.9,39.0,33.6,29.1,92,59,41,30.09,29.68,5,2,16,0.06
2013-4-13,51.6,44.9,36.3,27.9,24.0,19.5,66,44,29,29.80,29.65,7,3,22,0.01
2013-4-14,48.3,41.0,33.5,32.5,30.9,28.4,86,68,49,29.97,29.90,4,2,10,0.00
2013-4-15,47.7,42.9,34.3,23.9,20.5,18.5,57,41,34,30.05,29.99,6,3,13,0.00
2013-4-16,48.4,43.5,34.5,20.3,16.5,14.2,48,34,27,30.36,30.28,6,3,14,0.00
2013-4-17,54.0,49.5,42.3,23.2,18.4,13.0,46,30,20,30.47,30.33,5,2,15,0.00
2013-4-18,54.5,53.1,51.5,36.3,35.6,34.0,55,51,46,30.26,30.22,3,2,13,0.00
2013-4-19,57.9,55.2,48.9,47.8,45.2,43.5,91,69,60,29.97,29.90,5,3,15,0.24
2013-4-20,62.0,55.6,43.0,42.5,37.4,31.4,85,53,34,30.08,29.96,7,4,21,0.00
2013-4-21,50.6,45.2,39.7,41.6,37.9,35.9,89,76,61,30.17,30.06,6,1,14,0.16
2013-4-22,54.6,48.2,39.2,28.4,22.0,16.1,65,36,26,30.52,30.39,4,2,12,0.00
2013-4-23,58.5,55.3,46.1,32.0,28.4,23.6,56,36,27,30.26,30.22,5,1,13,0.00
2013-4-24,63.2,60.2,53.3,35.7,31.9,28.7,49,35,29,30.28,30.02,5,3,14,0.00
2013-4-26,74.2,65.6,47.0,47.0,40.4,32.1,69,42,27,30.13,30.04,5,2,16,0.00
2013-4-27,66.7,61.1,53.4,39.0,36.4,33.5,57,40,31,30.04,29.92,6,3,19,0.00
2013-4-28,61.6,59.8,57.4,40.3,33.6,29.7,50,38,31,30.02,29.87,6,4,20,0.00
2013-4-29,56.1,51.3,45.9,38.2,24.1,17.6,68,36,24,29.91,29.70,7,4,24,0.00
2013-4-30,49.9,46.1,39.3,33.4,26.1,20.6,62,46,33,30.27,30.08,6,2,14,0.00
2013-5-2,69.3,58.0,35.1,35.1,30.7,25.7,80,38,20,30.61,30.25,4,1,10,0.00
2013-5-3,71.3,62.9,52.1,42.4,39.9,35.1,66,44,28,30.24,30.13,4,2,11,0.00
2013-5-4,71.9,60.1,42.8,46.9,37.5,30.0,92,50,22,30.25,30.05,6,3,18,0.00
2013-5-5,78.4,71.8,61.3,38.6,35.5,31.8,42,27,19,30.01,29.82,5,3,11,0.00
2013-5-6,83.1,73.9,57.1,44.2,39.0,31.0,52,30,16,29.87,29.68,3,2,8,0.00
2013-5-7,83.3,74.3,65.5,45.8,43.2,40.1,47,34,23,29.77,29.74,2,0,6,0.00
2013-5-8,84.6,79.0,66.2,50.1,46.6,43.4,45,32,27,29.94,29.86,3,2,10,0.00
2013-5-10,88.1,78.5,62.4,52.3,47.3,38.1,58,35,18,30.11,30.00,4,2,13,0.00
2013-5-11,86.0,78.5,63.7,54.3,47.8,40.3,62,36,22,30.06,29.92,4,1,12,0.00
2013-5-12,78.9,74.3,61.4,55.5,53.2,51.8,74,48,41,29.94,29.88,5,2,16,0.00
2013-5-13,63.4,56.7,52.5,52.3,50.3,48.7,94,80,62,29.94,29.87,4,2,15,0.25
2013-5-14,58.9,52.0,45.6,37.8,35.1,33.2,66,53,40,30.14,30.05,4,1,12,0.00
2013-5-15,66.1,64.1,58.4,38.2,34.7,31.6,47,34,29,30.05,29.92,3,1,9,0.00
2013-5-16,63.2,58.2,50.9,49.6,47.0,44.6,86,67,53,29.93,29.84,3,1,7,0.04
2013-5-17,70.0,62.0,47.6,49.9,46.9,42.9,96,59,43,29.90,29.81,5,2,16,0.00
2013-5-18,62.4,56.9,50.2,48.1,45.1,43.3,86,65,52,30.09,30.03,2,1,8,0.03
2013-5-19,67.3,61.3,50.9,50.3,46.9,44.3,78,60,48,30.23,30.18,3,2,10,0.00
2013-5-20,73.2,66.9,54.3,50.0,46.1,43.0,81,48,35,30.25,29.89,4,1,11,0.00
2013-5-21,75.6,59.3,43.7,51.1,45.4,41.4,95,64,36,29.77,29.52,7,2,23,0.21
2013-5-22,50.6,44.3,38.9,41.9,38.7,36.7,94,81,63,30.03,29.85,3,1,10,0.11
2013-5-23,61.1,52.7,37.4,42.6,37.9,32.5,98,60,35,30.07,29.96,3,1,8,0.01
2013-5-24,55.3,50.7,45.9,43.7,41.4,39.8,85,71,56,30.01,29.98,5,2,14,0.00
2013-5-25,62.3,57.8,49.5,45.5,42.1,38.7,80,57,44,30.05,29.97,3,1,9,0.00
2013-5-27,66.3,61.0,52.8,49.4,46.1,41.7,88,60,43,29.83,29.76,6,2,14,0.02
2013-5-28,62.2,56.3,51.9,54.8,50.6,47.3,93,82,59,29.82,29.76,3,1,8,0.29
2013-5-29,62.9,56.9,54.5,50.9,48.2,45.0,83,73,54,29.76,29.66,5,2,15,0.00
2013-5-30,64.2,62.4,60.0,42.6,39.0,36.2,51,42,37,30.03,30.01,4,2,14,0.03
2013-5-31,67.6,61.5,51.0,44.0,40.7,35.7,73,48,32,30.26,30.20,4,2,13,0.00
2013-6-1,72.0,66.4,57.0,46.5,42.8,38.2,65,43,31,30.17,29.96,2,1,10,0.00
2013-6-2,63.3,56.4,50.0,53.7,49.9,46.1,96,80,55,29.93,29.88,5,1,15,0.47
2013-6-3,72.8,66.9,60.4,51.8,48.8,44.1,69,53,38,30.00,29.94,4,2,11,0.00
2013-6-5,82.0,77.9,67.7,52.2,49.3,46.9,57,37,31,30.01,29.86,3,2,11,0.00
2013-6-6,85.1,79.8,66.2,55.2,52.4,50.1,64,39,31,29.92,29.80,4,2,13,0.00
2013-6-7,82.1,76.7,65.6,52.9,48.7,43.4,56,38,27,29.83,29.73,6,4,27,0.00
2013-10-13,57.1,45.9,33.6,38.0,34.7,31.0,90,68,42,30.35,30.24,3,0,5,0.00
2013-10-14,33.5,29.7,27.5,30.9,28.0,26.1,95,93,90,30.43,30.35,0,0,0,0.00
2013-11-24,30.0,26.2,24.4,23.4,22.1,21.1,88,84,76,30.50,30.41,0,0,0,0.00
2013-11-25,24.7,22.8,21.8,21.5,20.3,19.6,91,90,87,30.53,30.50,0,0,0,0.00